Location: Julian California
(33.0790°N, 116.6010°W)
Time: 14:49:32
(UTC-07:00)

Cosmos 304 Rocket - Pass Details

Date: 19 May 2017
Orbit: 679 x 689 km, 74.0° (Epoch: 24 May)

Event Time Altitude Azimuth Distance (km) Brightness Sun altitude
Rises 20:13:00 0° 200° (SSW) 3,032 7.0 -6.6°
Reaches altitude 10° 20:15:18 10° 202° (SSW) 2,121 6.2 -7.0°
Maximum altitude 20:20:04 72° 287° (WNW) 721 4.1 -7.9°
Drops below altitude 10° 20:24:53 10° 12° (NNE) 2,139 6.6 -8.7°
Sets 20:27:12 0° 15° (NNE) 3,059 7.3 -9.2°
